Home   Weather   Wittenberg   Past weeks

Flag for Germany Past Weather in Wittenberg, Saxony-Anhalt, Germany — Yesterday and Last 2 Weeks

Now
25 °F

Low clouds.


Feels Like: 19 °F
Forecast: 14 / 23 °F
Wind: 5 mph from South

Location: Holzdorf

Current Time: Jan 18, 2017 at 7:19:34 pm

Latest Report: Jan 18, 2017 at 6:20 pm


Visibility: N/A

Pressure: 30.74 "Hg

Humidity: 86%

Dew Point: 21 °F

Location of WittenbergLocation

Past Weather in Wittenberg — Graph

°F

Wittenberg Temperature Yesterday

Maximum temperature yesterday: 27 °F (at 12:20 am)
Minimum temperature yesterday: 14 °F (at 9:08 pm)
Average temperature yesterday: 22 °F

High & Low Weather Summary for the Past Weeks

 TemperatureHumidityPressure
High39 °F (Jan 4, 11:06 am)100% (Jan 3, 11:20 pm)30.77 "Hg (Jan 3, 11:20 pm)
Low5 °F (Jan 6, 11:20 pm)63% (Jan 5, 4:20 pm)29.03 "Hg (Jan 13, 6:20 am)
Average28 °F89%30.07 "Hg
* Reported Jan 3 5:00 pm — Jan 18 5:20 pm, Wittenberg, Weather by CustomWeather, © 2017

Note: Actual official high and low records may vary slightly from our data, if they occured in-between our weather recording intervals... More about our weather records

Advertising

Wittenberg Weather History for the Previous 24 Hours

Scroll right to see more
 ConditionsComfort  
Time TempWeatherWind HumidityBarometerVisibility
5:20 pm
Wed, Jan 18
25 °FOvercast.3 mph86%30.74 "Hg6 mi
4:20 pm25 °FOvercast.3 mph86%30.74 "HgN/A
3:20 pm27 °FOvercast.1 mph80%30.74 "HgN/A
2:20 pm27 °FPartly sunny.1 mph80%30.74 "HgN/A
1:20 pm27 °FPartly sunny.3 mph80%30.74 "HgN/A
12:20 pm25 °FPartly sunny.1 mph93%30.74 "HgN/A
11:20 am25 °FBroken clouds.1 mph93%30.77 "Hg5 mi
10:40 am25 °FIce fog.1 mph100%30.77 "Hg3 mi
10:20 am23 °FIce fog.No wind93%30.74 "Hg3 mi
10:05 am23 °FIce fog.No wind93%30.74 "Hg2 mi
9:20 am23 °FIce fog.1 mph93%30.74 "Hg2 mi
9:15 am23 °FIce fog.1 mph93%30.74 "Hg2 mi
8:20 am21 °FIce fog.1 mph100%30.74 "Hg2 mi
7:20 am21 °FIce fog.1 mph93%30.72 "Hg2 mi
6:20 am21 °FIce fog.1 mph93%30.72 "Hg3 mi
5:20 am21 °FIce fog.2 mph93%30.72 "Hg3 mi
4:20 am21 °FIce fog.1 mph93%30.72 "Hg3 mi
3:20 am19 °FIce fog.1 mph100%30.72 "Hg2 mi
2:20 am19 °FIce fog.2 mph93%30.72 "Hg2 mi
1:20 am19 °FIce fog.2 mph93%30.72 "Hg2 mi
12:37 am19 °FIce fog.2 mph93%30.72 "Hg2 mi
12:20 am19 °FIce fog.2 mph93%30.72 "Hg1 mi
11:48 pm
Tue, Jan 17
19 °FIce fog.2 mph93%30.72 "Hg1 mi
11:20 pm19 °FIce fog.1 mph93%30.72 "Hg0 mi
11:01 pm19 °FIce fog.1 mph93%30.69 "Hg1 mi
10:20 pm19 °FIce fog.1 mph93%30.72 "Hg0 mi
9:35 pm18 °FIce fog.2 mph93%30.69 "Hg0 mi
9:08 pm14 °FIce fog.2 mph92%30.69 "Hg1 mi
8:20 pm16 °FIce fog.1 mph93%30.69 "Hg1 mi
7:45 pm18 °FIce fog.3 mph100%30.69 "Hg1 mi
7:20 pm19 °FIce fog.2 mph93%30.66 "Hg0 mi
7:00 pm19 °FIce fog.5 mph93%30.66 "Hg0 mi
Weather by CustomWeather, © 2017

See weather overviewHow to use our weather pages